Time,TemperatureF,DewpointF,PressureIn,WindDirection,WindDirectionDegrees,WindSpeedMPH,WindSpeedGustMPH,Humidity,HourlyPrecipIn,Conditions,Clouds,dailyrainin,SoftwareType,DateUTC
2013-05-31 00:09:00,39.6,-99.9,30.10,SW,222,6.0,9.0,-999,0.00,,,0.00,weatherlink.com 1.10,2013-05-31 04:09:00,
2013-05-31 00:24:00,37.0,-99.9,30.10,SW,222,7.0,9.0,-999,0.00,,,0.00,weatherlink.com 1.10,2013-05-31 04:24:00,
2013-05-31 00:39:00,38.0,-99.9,30.10,SW,222,7.0,8.0,-999,0.00,,,0.00,weatherlink.com 1.10,2013-05-31 04:39:00,
2013-05-31 00:54:00,39.9,-99.9,30.10,SW,222,6.0,8.0,-999,0.00,,,0.00,weatherlink.com 1.10,2013-05-31 04:54:00,
2013-05-31 01:09:00,38.9,-99.9,30.10,SW,222,8.0,10.0,-999,0.00,,,0.00,weatherlink.com 1.10,2013-05-31 05:09:00,
2013-05-31 01:24:00,39.6,-99.9,30.10,SW,222,6.0,9.0,-999,0.00,,,0.00,weatherlink.com 1.10,2013-05-31 05:24:00,
2013-05-31 01:39:00,39.9,-99.9,30.10,SW,222,5.0,10.0,-999,0.00,,,0.00,weatherlink.com 1.10,2013-05-31 05:39:00,
2013-05-31 01:54:00,40.6,-99.9,30.10,SW,222,6.0,9.0,-999,0.00,,,0.00,weatherlink.com 1.10,2013-05-31 05:54:00,
2013-05-31 02:09:00,40.3,-99.9,30.10,SW,222,7.0,9.0,-999,0.00,,,0.00,weatherlink.com 1.10,2013-05-31 06:09:00,
2013-05-31 02:24:00,39.9,-99.9,30.10,SW,222,7.0,9.0,-999,0.00,,,0.00,weatherlink.com 1.10,2013-05-31 06:24:00,
2013-05-31 02:39:00,40.8,-99.9,30.10,SW,222,5.0,8.0,-999,0.00,,,0.00,weatherlink.com 1.10,2013-05-31 06:39:00,
2013-05-31 02:54:00,40.2,-99.9,30.09,SW,222,6.0,9.0,-999,0.00,,,0.00,weatherlink.com 1.10,2013-05-31 06:54:00,
2013-05-31 03:09:00,40.6,-99.9,30.09,SW,222,7.0,8.0,-999,0.00,,,0.00,weatherlink.com 1.10,2013-05-31 07:09:00,
2013-05-31 03:24:00,40.3,-99.9,30.10,SW,222,7.0,9.0,-999,0.00,,,0.00,weatherlink.com 1.10,2013-05-31 07:24:00,
2013-05-31 03:39:00,40.8,-99.9,30.09,SW,222,7.0,8.0,-999,0.00,,,0.00,weatherlink.com 1.10,2013-05-31 07:39:00,
2013-05-31 03:54:00,40.5,-99.9,30.10,SW,222,8.0,9.0,-999,0.00,,,0.00,weatherlink.com 1.10,2013-05-31 07:54:00,
2013-05-31 04:09:00,40.6,-99.9,30.10,SW,222,7.0,9.0,-999,0.00,,,0.00,weatherlink.com 1.10,2013-05-31 08:09:00,
2013-05-31 04:24:00,41.9,-99.9,30.10,SW,222,7.0,10.0,-999,0.00,,,0.00,weatherlink.com 1.10,2013-05-31 08:24:00,
2013-05-31 04:39:00,40.5,-99.9,30.10,SW,222,7.0,10.0,-999,0.00,,,0.00,weatherlink.com 1.10,2013-05-31 08:39:00,
2013-05-31 04:54:00,40.1,-99.9,30.10,SW,222,9.0,10.0,-999,0.00,,,0.00,weatherlink.com 1.10,2013-05-31 08:54:00,
2013-05-31 05:09:00,39.9,-99.9,30.10,SW,222,10.0,11.0,-999,0.00,,,0.00,weatherlink.com 1.10,2013-05-31 09:09:00,
2013-05-31 05:24:00,41.6,-99.9,30.10,SW,222,6.0,10.0,-999,0.00,,,0.00,weatherlink.com 1.10,2013-05-31 09:24:00,
2013-05-31 05:39:00,41.5,-99.9,30.11,SW,222,8.0,10.0,-999,0.00,,,0.00,weatherlink.com 1.10,2013-05-31 09:39:00,
2013-05-31 05:54:00,41.3,-99.9,30.11,SW,222,9.0,10.0,-999,0.00,,,0.00,weatherlink.com 1.10,2013-05-31 09:54:00,
2013-05-31 06:09:00,41.9,-99.9,30.11,SW,222,8.0,10.0,-999,0.00,,,0.00,weatherlink.com 1.10,2013-05-31 10:09:00,
2013-05-31 06:25:00,42.6,-99.9,30.11,SW,222,7.0,11.0,-999,0.00,,,0.00,weatherlink.com 1.10,2013-05-31 10:25:00,
2013-05-31 06:40:00,43.1,-99.9,30.12,SW,222,8.0,10.0,-999,0.00,,,0.00,weatherlink.com 1.10,2013-05-31 10:40:00,
2013-05-31 06:55:00,44.2,-99.9,30.12,SW,222,9.0,9.0,-999,0.00,,,0.00,weatherlink.com 1.10,2013-05-31 10:55:00,
2013-05-31 07:10:00,43.3,-99.9,30.12,SW,222,4.0,9.0,-999,0.00,,,0.00,weatherlink.com 1.10,2013-05-31 11:10:00,
2013-05-31 07:25:00,44.1,-99.9,30.12,SW,222,6.0,10.0,-999,0.00,,,0.00,weatherlink.com 1.10,2013-05-31 11:25:00,
2013-05-31 07:40:00,43.2,-99.9,30.12,SW,222,5.0,10.0,-999,0.00,,,0.00,weatherlink.com 1.10,2013-05-31 11:40:00,
2013-05-31 07:55:00,44.2,-99.9,30.12,SW,236,9.0,13.0,-999,0.00,,,0.00,weatherlink.com 1.10,2013-05-31 11:55:00,
2013-05-31 08:10:00,43.9,-99.9,30.12,WSW,241,7.0,12.0,-999,0.00,,,0.00,weatherlink.com 1.10,2013-05-31 12:10:00,
2013-05-31 08:25:00,43.5,-99.9,30.12,WSW,238,4.0,8.0,-999,0.00,,,0.00,weatherlink.com 1.10,2013-05-31 12:25:00,
2013-05-31 08:40:00,43.8,-99.9,30.12,WSW,238,6.0,8.0,-999,0.00,,,0.00,weatherlink.com 1.10,2013-05-31 12:40:00,
2013-05-31 08:55:00,43.9,-99.9,30.12,WSW,242,7.0,12.0,-999,0.00,,,0.00,weatherlink.com 1.10,2013-05-31 12:55:00,
2013-05-31 09:10:00,44.2,-99.9,30.12,WSW,239,8.0,12.0,-999,0.00,,,0.00,weatherlink.com 1.10,2013-05-31 13:10:00,
2013-05-31 09:25:00,43.9,-99.9,30.11,SW,234,6.0,12.0,-999,0.00,,,0.00,weatherlink.com 1.10,2013-05-31 13:25:00,
2013-05-31 09:40:00,45.2,-99.9,30.11,SW,234,7.0,10.0,-999,0.00,,,0.00,weatherlink.com 1.10,2013-05-31 13:40:00,
2013-05-31 09:56:00,43.3,-99.9,30.11,SW,234,8.0,9.0,-999,0.00,,,0.00,weatherlink.com 1.10,2013-05-31 13:56:00,
2013-05-31 10:11:00,43.1,-99.9,30.11,SW,234,6.0,9.0,-999,0.00,,,0.00,weatherlink.com 1.10,2013-05-31 14:11:00,
2013-05-31 10:26:00,41.8,-99.9,30.10,SW,227,3.0,10.0,-999,0.00,,,0.00,weatherlink.com 1.10,2013-05-31 14:26:00,
2013-05-31 10:41:00,36.8,-99.9,30.10,SW,216,5.0,7.0,-999,0.00,,,0.00,weatherlink.com 1.10,2013-05-31 14:41:00,
2013-05-31 10:56:00,72.4,-99.9,30.11,South,171,8.0,9.0,-999,0.00,,,0.00,weatherlink.com 1.10,2013-05-31 14:56:00,
2013-05-31 11:11:00,70.8,-99.9,30.10,SSE,165,9.0,12.0,-999,0.00,,,0.00,weatherlink.com 1.10,2013-05-31 15:11:00,
2013-05-31 11:26:00,69.5,63.0,30.10,SSE,163,9.0,14.0,80,0.00,,,0.00,weatherlink.com 1.10,2013-05-31 15:26:00,
2013-05-31 11:41:00,66.1,61.0,30.10,SSE,166,9.0,14.0,83,0.00,,,0.00,weatherlink.com 1.10,2013-05-31 15:41:00,
2013-05-31 11:56:00,66.3,61.0,30.09,SSE,163,10.0,15.0,84,0.00,,,0.00,weatherlink.com 1.10,2013-05-31 15:56:00,
2013-05-31 12:11:00,66.4,62.0,30.09,SE,143,11.0,16.0,86,0.00,,,0.00,weatherlink.com 1.10,2013-05-31 16:11:00,
2013-05-31 12:26:00,66.6,62.0,30.09,South,180,11.0,16.0,85,0.00,,,0.00,weatherlink.com 1.10,2013-05-31 16:26:00,
2013-05-31 12:41:00,66.7,62.0,30.09,South,171,10.0,19.0,84,0.00,,,0.00,weatherlink.com 1.10,2013-05-31 16:41:00,
2013-05-31 12:56:00,67.5,62.0,30.08,South,180,11.0,16.0,83,0.00,,,0.00,weatherlink.com 1.10,2013-05-31 16:56:00,
2013-05-31 13:11:00,67.8,62.0,30.08,South,170,12.0,15.0,82,0.00,,,0.00,weatherlink.com 1.10,2013-05-31 17:11:00,
2013-05-31 13:26:00,67.3,62.0,30.08,SSE,164,10.0,15.0,83,0.00,,,0.00,weatherlink.com 1.10,2013-05-31 17:26:00,
2013-05-31 13:41:00,68.1,62.0,30.07,SSE,168,7.0,15.0,80,0.00,,,0.00,weatherlink.com 1.10,2013-05-31 17:41:00,
2013-05-31 13:56:00,67.3,61.0,30.06,SSE,160,13.0,19.0,81,0.00,,,0.00,weatherlink.com 1.10,2013-05-31 17:56:00,
2013-05-31 14:11:00,67.7,62.0,30.06,South,173,10.0,20.0,81,0.00,,,0.00,weatherlink.com 1.10,2013-05-31 18:11:00,
2013-05-31 14:26:00,67.7,61.0,30.05,SSE,154,16.0,20.0,80,0.00,,,0.00,weatherlink.com 1.10,2013-05-31 18:26:00,
2013-05-31 14:41:00,66.9,61.0,30.05,South,170,10.0,20.0,82,0.00,,,0.00,weatherlink.com 1.10,2013-05-31 18:41:00,
2013-05-31 14:56:00,66.3,61.0,30.05,South,187,11.0,22.0,83,0.00,,,0.00,weatherlink.com 1.10,2013-05-31 18:56:00,
2013-05-31 15:11:00,67.1,61.0,30.04,SSE,148,15.0,23.0,81,0.00,,,0.00,weatherlink.com 1.10,2013-05-31 19:11:00,
2013-05-31 15:27:00,67.8,62.0,30.04,South,169,14.0,20.0,82,0.00,,,0.00,weatherlink.com 1.10,2013-05-31 19:27:00,
2013-05-31 15:41:00,69.7,64.0,30.04,South,170,13.0,22.0,81,0.00,,,0.00,weatherlink.com 1.10,2013-05-31 19:41:00,
2013-05-31 15:56:00,69.2,63.0,30.03,SSE,167,14.0,20.0,80,0.00,,,0.00,weatherlink.com 1.10,2013-05-31 19:56:00,
2013-05-31 16:11:00,68.5,63.0,30.03,South,179,9.0,19.0,81,0.00,,,0.00,weatherlink.com 1.10,2013-05-31 20:11:00,
2013-05-31 16:26:00,69.2,64.0,30.02,South,174,7.0,19.0,84,0.00,,,0.00,weatherlink.com 1.10,2013-05-31 20:26:00,
2013-05-31 16:42:00,71.4,-99.9,30.02,South,175,11.0,21.0,-999,0.00,,,0.00,weatherlink.com 1.10,2013-05-31 20:42:00,
2013-05-31 16:57:00,72.3,-99.9,30.02,South,178,13.0,19.0,-999,0.00,,,0.00,weatherlink.com 1.10,2013-05-31 20:57:00,
2013-05-31 17:12:00,70.0,64.0,30.02,SSE,167,10.0,22.0,80,0.00,,,0.00,weatherlink.com 1.10,2013-05-31 21:12:00,
2013-05-31 17:27:00,69.9,64.0,30.01,South,178,10.0,20.0,81,0.00,,,0.00,weatherlink.com 1.10,2013-05-31 21:27:00,
2013-05-31 17:42:00,71.6,-99.9,30.01,South,172,10.0,19.0,-999,0.00,,,0.00,weatherlink.com 1.10,2013-05-31 21:42:00,
2013-05-31 17:57:00,73.1,-99.9,30.00,SSW,194,9.0,20.0,-999,0.00,,,0.00,weatherlink.com 1.10,2013-05-31 21:57:00,
2013-05-31 18:12:00,34.6,-99.9,30.01,South,185,9.0,17.0,-999,0.00,,,0.00,weatherlink.com 1.10,2013-05-31 22:12:00,
2013-05-31 18:27:00,35.5,-99.9,30.00,South,188,9.0,16.0,-999,0.00,,,0.00,weatherlink.com 1.10,2013-05-31 22:27:00,
2013-05-31 18:42:00,73.0,-99.9,30.01,South,171,9.0,17.0,-999,0.00,,,0.00,weatherlink.com 1.10,2013-05-31 22:42:00,
2013-05-31 18:57:00,71.6,-99.9,30.01,SSE,165,10.0,17.0,-999,0.00,,,0.00,weatherlink.com 1.10,2013-05-31 22:57:00,
2013-05-31 19:12:00,68.8,62.0,30.01,SSE,165,10.0,19.0,80,0.00,,,0.00,weatherlink.com 1.10,2013-05-31 23:12:00,
2013-05-31 19:27:00,67.1,62.0,30.00,South,178,11.0,17.0,84,0.00,,,0.00,weatherlink.com 1.10,2013-05-31 23:27:00,
2013-05-31 19:42:00,67.6,63.0,30.00,South,188,10.0,15.0,84,0.00,,,0.00,weatherlink.com 1.10,2013-05-31 23:42:00,
2013-05-31 19:57:00,68.4,63.0,30.00,South,188,12.0,15.0,82,0.00,,,0.00,weatherlink.com 1.10,2013-05-31 23:57:00,
2013-05-31 20:12:00,67.4,62.0,30.00,South,173,8.0,12.0,84,0.00,,,0.00,weatherlink.com 1.10,2013-06-01 00:12:00,
2013-05-31 20:28:00,69.7,65.0,30.00,SSW,192,6.0,10.0,85,0.00,,,0.00,weatherlink.com 1.10,2013-06-01 00:28:00,
2013-05-31 20:42:00,71.6,-99.9,30.00,SSW,192,5.0,9.0,-999,0.00,,,0.00,weatherlink.com 1.10,2013-06-01 00:42:00,
2013-05-31 20:57:00,34.1,-99.9,30.00,SSW,196,4.0,11.0,-999,0.00,,,0.00,weatherlink.com 1.10,2013-06-01 00:57:00,
2013-05-31 21:12:00,70.6,63.0,30.01,South,188,6.0,9.0,77,0.00,,,0.00,weatherlink.com 1.10,2013-06-01 01:12:00,
2013-05-31 21:27:00,68.3,64.0,30.02,SSW,192,7.0,9.0,85,0.00,,,0.00,weatherlink.com 1.10,2013-06-01 01:27:00,
2013-05-31 21:42:00,69.4,65.0,30.02,SSW,192,6.0,9.0,85,0.00,,,0.00,weatherlink.com 1.10,2013-06-01 01:42:00,
2013-05-31 21:57:00,69.9,-99.9,30.02,SSW,197,5.0,9.0,-999,0.00,,,0.00,weatherlink.com 1.10,2013-06-01 01:57:00,
2013-05-31 22:12:00,35.5,-99.9,30.03,SSW,208,7.0,12.0,-999,0.00,,,0.00,weatherlink.com 1.10,2013-06-01 02:12:00,
2013-05-31 22:27:00,36.6,-99.9,30.03,SSW,207,9.0,11.0,-999,0.00,,,0.00,weatherlink.com 1.10,2013-06-01 02:27:00,
2013-05-31 22:43:00,33.8,-99.9,30.03,SW,217,7.0,11.0,-999,0.00,,,0.00,weatherlink.com 1.10,2013-06-01 02:43:00,
2013-05-31 22:58:00,36.6,-99.9,30.03,SW,215,11.0,14.0,-999,0.00,,,0.00,weatherlink.com 1.10,2013-06-01 02:58:00,
2013-05-31 23:13:00,35.6,-99.9,30.03,SW,217,11.0,14.0,-999,0.00,,,0.00,weatherlink.com 1.10,2013-06-01 03:13:00,
2013-05-31 23:28:00,36.5,-99.9,30.03,SW,218,12.0,14.0,-999,0.00,,,0.00,weatherlink.com 1.10,2013-06-01 03:28:00,